| time (UTC) | temp F | wind direction | speed MPH | gust MPH | rain 1hr in | rain 24hr in | rain mn in | humidity % | barometer mb |
| 20260507214559 | 49 | 264 | 4.0 | 8.0 | 0.00 | 0.00 | 0.00 | 42 | 1008.1 |
| 20260507214404 | 49 | 267 | 4.0 | 8.0 | 0.00 | 0.00 | 0.00 | 43 | 1007.9 |
| 20260507213604 | 49 | 297 | 4.0 | 11.0 | 0.00 | 0.00 | 0.00 | 42 | 1007.9 |
| 20260507213057 | 49 | 279 | 4.0 | 12.0 | 0.00 | 0.00 | 0.00 | 41 | 1007.9 |
| 20260507212914 | 50 | 348 | 4.0 | 12.0 | 0.00 | 0.00 | 0.00 | 42 | 1007.9 |
| 20260507212050 | 50 | 211 | 4.0 | 9.0 | 0.00 | 0.00 | 0.00 | 41 | 1007.9 |
| 20260507211550 | 50 | 269 | 5.0 | 11.0 | 0.00 | 0.00 | 0.00 | 41 | 1007.9 |
| 20260507211419 | 50 | 240 | 5.0 | 13.0 | 0.00 | 0.00 | 0.00 | 42 | 1008.0 |
| 20260507210920 | 50 | 224 | 3.0 | 13.0 | 0.00 | 0.00 | 0.00 | 40 | 1008.0 |
| 20260507210059 | 50 | 250 | 4.0 | 10.0 | 0.00 | 0.00 | 0.00 | 42 | 1008.0 |
| 20260507205904 | 50 | 9 | 5.0 | 10.0 | 0.00 | 0.00 | 0.00 | 42 | 1008.0 |
| 20260507205045 | 51 | 284 | 5.0 | 14.0 | 0.00 | 0.00 | 0.00 | 41 | 1008.1 |
| 20260507204900 | 51 | 288 | 4.0 | 14.0 | 0.00 | 0.00 | 0.00 | 38 | 1008.1 |
| 20260507204351 | 51 | 331 | 3.0 | 7.0 | 0.00 | 0.00 | 0.00 | 42 | 1008.1 |
| 20260507203545 | 51 | 236 | 4.0 | 13.0 | 0.00 | 0.00 | 0.00 | 40 | 1008.1 |
| 20260507203158 | 51 | 292 | 5.0 | 15.0 | 0.00 | 0.00 | 0.00 | 41 | 1008.1 |
| 20260507203131 | 51 | 278 | 5.0 | 13.0 | 0.00 | 0.00 | 0.00 | 39 | 1008.1 |
| 20260507202012 | 51 | 255 | 5.0 | 15.0 | 0.00 | 0.00 | 0.00 | 40 | 1008.1 |
| 20260507201820 | 51 | 239 | 4.0 | 14.0 | 0.00 | 0.00 | 0.00 | 42 | 1008.1 |
| 20260507201012 | 51 | 307 | 5.0 | 14.0 | 0.00 | 0.00 | 0.00 | 39 | 1008.1 |
| 20260507200818 | 51 | 267 | 4.0 | 13.0 | 0.00 | 0.00 | 0.00 | 42 | 1008.1 |
| 20260507200318 | 50 | 256 | 4.0 | 14.0 | 0.00 | 0.00 | 0.00 | 40 | 1008.0 |
| 20260507195512 | 50 | 237 | 5.0 | 14.0 | 0.00 | 0.00 | 0.00 | 40 | 1008.3 |
| 20260507195008 | 51 | 294 | 4.0 | 12.0 | 0.00 | 0.00 | 0.00 | 40 | 1008.4 |
| 20260507194507 | 52 | 240 | 4.0 | 12.0 | 0.00 | 0.00 | 0.00 | 39 | 1008.4 |
| 20260507194009 | 52 | 19 | 3.0 | 12.0 | 0.00 | 0.00 | 0.00 | 41 | 1008.3 |
| 20260507193819 | 52 | 297 | 3.0 | 8.0 | 0.00 | 0.00 | 0.00 | 47 | 1008.3 |
| 20260507193004 | 51 | 236 | 4.0 | 10.0 | 0.00 | 0.00 | 0.00 | 42 | 1008.3 |
| 20260507192505 | 51 | 213 | 6.0 | 12.0 | 0.00 | 0.00 | 0.00 | 41 | 1008.4 |
| 20260507192004 | 52 | 311 | 4.0 | 12.0 | 0.00 | 0.00 | 0.00 | 38 | 1008.4 |
| 20260507191818 | 52 | 175 | 2.0 | 8.0 | 0.00 | 0.00 | 0.00 | 43 | 1008.5 |
| 20260507191004 | 51 | 296 | 4.0 | 12.0 | 0.00 | 0.00 | 0.00 | 47 | 1008.5 |
| 20260507190505 | 51 | 260 | 5.0 | 12.0 | 0.00 | 0.00 | 0.00 | 40 | 1008.5 |
| 20260507190001 | 52 | 325 | 4.0 | 9.0 | 0.00 | 0.00 | 0.00 | 40 | 1008.5 |
| 20260507185500 | 52 | 248 | 3.0 | 9.0 | 0.00 | 0.00 | 0.00 | 43 | 1008.6 |
| 20260507184958 | 52 | 25 | 2.0 | 7.0 | 0.00 | 0.00 | 0.00 | 44 | 1008.5 |
| 20260507184501 | 51 | 242 | 2.0 | 6.0 | 0.00 | 0.00 | 0.00 | 45 | 1008.6 |
| 20260507183954 | 51 | 340 | 3.0 | 9.0 | 0.00 | 0.00 | 0.00 | 44 | 1008.6 |
| 20260507183452 | 51 | 230 | 3.0 | 9.0 | 0.00 | 0.00 | 0.00 | 44 | 1008.6 |
| 20260507182952 | 51 | 318 | 3.0 | 7.0 | 0.00 | 0.00 | 0.00 | 47 | 1008.9 |
| 20260507182441 | 51 | 304 | 3.0 | 13.0 | 0.00 | 0.00 | 0.00 | 46 | 1008.8 |
| 20260507181932 | 51 | 0 | 3.0 | 13.0 | 0.00 | 0.00 | 0.00 | 46 | 1008.8 |
| 20260507181606 | 50 | 258 | 3.0 | 8.0 | 0.00 | 0.00 | 0.00 | 45 | 1009.0 |
| 20260507181530 | 51 | 288 | 3.0 | 8.0 | 0.00 | 0.00 | 0.00 | 46 | 1009.0 |
| 20260507180732 | 50 | 310 | 3.0 | 12.0 | 0.00 | 0.00 | 0.00 | 47 | 1009.0 |
| 20260507180009 | 50 | 303 | 2.0 | 12.0 | 0.00 | 0.00 | 0.00 | 48 | 1009.1 |
| 20260507174908 | 47 | 228 | 3.0 | 6.0 | 0.00 | 0.00 | 0.00 | 51 | 1008.9 |
| 20260507174413 | 48 | 258 | 4.0 | 10.0 | 0.00 | 0.00 | 0.00 | 50 | 1009.2 |
| 20260507173907 | 48 | 290 | 3.0 | 10.0 | 0.00 | 0.00 | 0.00 | 50 | 1009.2 |
| 20260507173719 | 47 | 325 | 2.0 | 8.0 | 0.00 | 0.00 | 0.00 | 56 | 1009.1 |
| 20260507172909 | 46 | 261 | 3.0 | 8.0 | 0.00 | 0.00 | 0.00 | 53 | 1009.3 |
| 20260507172408 | 46 | 292 | 3.0 | 7.0 | 0.00 | 0.00 | 0.00 | 54 | 1009.3 |
| 20260507172216 | 47 | 217 | 3.0 | 6.0 | 0.00 | 0.00 | 0.00 | 54 | 1009.3 |
| 20260507171403 | 46 | 267 | 3.0 | 6.0 | 0.00 | 0.00 | 0.00 | 56 | 1009.8 |
| 20260507170916 | 45 | 305 | 2.0 | 5.0 | 0.00 | 0.00 | 0.00 | 62 | 1009.7 |
| 20260507170513 | 44 | 259 | 4.0 | 11.0 | 0.00 | 0.00 | 0.00 | 57 | 1009.6 |
| 20260507170445 | 44 | 286 | 3.0 | 11.0 | 0.00 | 0.00 | 0.00 | 57 | 1009.6 |
| 20260507165706 | 44 | 279 | 3.0 | 8.0 | 0.00 | 0.00 | 0.00 | 57 | 1009.6 |
| 20260507165157 | 44 | 274 | 3.0 | 7.0 | 0.00 | 0.00 | 0.00 | 57 | 1009.6 |
| 20260507164358 | 44 | 274 | 4.0 | 8.0 | 0.00 | 0.00 | 0.00 | 55 | 1009.7 |
| 20260507163856 | 44 | 244 | 4.0 | 9.0 | 0.00 | 0.00 | 0.00 | 55 | 1009.7 |
| 20260507163355 | 44 | 263 | 3.0 | 9.0 | 0.00 | 0.00 | 0.00 | 53 | 1009.7 |
| 20260507162856 | 44 | 279 | 4.0 | 8.0 | 0.00 | 0.00 | 0.00 | 52 | 1009.8 |
| 20260507162357 | 44 | 277 | 3.0 | 8.0 | 0.00 | 0.00 | 0.00 | 53 | 1009.8 |
| 20260507161842 | 44 | 305 | 2.0 | 6.0 | 0.00 | 0.00 | 0.00 | 54 | 1009.8 |
| 20260507161313 | 44 | 273 | 3.0 | 6.0 | 0.00 | 0.00 | 0.00 | 53 | 1009.9 |
| 20260507160757 | 44 | 256 | 3.0 | 6.0 | 0.00 | 0.00 | 0.00 | 52 | 1009.9 |
| 20260507160238 | 45 | 273 | 2.0 | 6.0 | 0.00 | 0.00 | 0.00 | 52 | 1009.9 |
| 20260507160030 | 45 | 274 | 1.0 | 5.0 | 0.00 | 0.00 | 0.00 | 52 | 1010.0 |
| 20260507155234 | 45 | 302 | 0.0 | 2.0 | 0.00 | 0.00 | 0.00 | 55 | 1009.9 |
| 20260507154714 | 44 | 333 | 1.0 | 6.0 | 0.00 | 0.00 | 0.00 | 55 | 1009.9 |
| 20260507154208 | 44 | 345 | 2.0 | 6.0 | 0.00 | 0.00 | 0.00 | 53 | 1009.8 |
| 20260507153703 | 44 | 348 | 2.0 | 6.0 | 0.00 | 0.00 | 0.00 | 53 | 1009.8 |
| 20260507153201 | 44 | 269 | 2.0 | 6.0 | 0.00 | 0.00 | 0.00 | 51 | 1009.8 |
| 20260507152702 | 44 | 297 | 2.0 | 4.0 | 0.00 | 0.00 | 0.00 | 53 | 1009.9 |
| 20260507152158 | 44 | 262 | 1.0 | 5.0 | 0.00 | 0.00 | 0.00 | 52 | 1009.9 |
| 20260507151641 | 44 | 246 | 2.0 | 8.0 | 0.00 | 0.00 | 0.00 | 54 | 1009.9 |
| 20260507151144 | 44 | 273 | 3.0 | 8.0 | 0.00 | 0.00 | 0.00 | 52 | 1009.9 |
| 20260507150641 | 45 | 284 | 2.0 | 6.0 | 0.00 | 0.00 | 0.00 | 51 | 1010.0 |
| 20260507150119 | 45 | 310 | 1.0 | 6.0 | 0.00 | 0.00 | 0.00 | 53 | 1010.0 |
| 20260507145614 | 45 | 273 | 1.0 | 6.0 | 0.00 | 0.00 | 0.00 | 53 | 1010.0 |
| 20260507145116 | 45 | 267 | 1.0 | 5.0 | 0.00 | 0.00 | 0.00 | 52 | 1010.0 |
| 20260507144903 | 45 | 209 | 2.0 | 5.0 | 0.00 | 0.00 | 0.00 | 51 | 1010.0 |
| 20260507144403 | 45 | 327 | 2.0 | 6.0 | 0.00 | 0.00 | 0.00 | 52 | 1010.0 |
| 20260507143605 | 45 | 252 | 3.0 | 9.0 | 0.00 | 0.00 | 0.00 | 52 | 1010.0 |
| 20260507143056 | 45 | 264 | 3.0 | 9.0 | 0.00 | 0.00 | 0.00 | 52 | 1010.0 |
| 20260507142642 | 45 | 234 | 2.0 | 7.0 | 0.00 | 0.00 | 0.00 | 52 | 1010.0 |
| 20260507141552 | 45 | 267 | 2.0 | 7.0 | 0.00 | 0.00 | 0.00 | 53 | 1010.0 |
| 20260507141055 | 46 | 263 | 1.0 | 5.0 | 0.00 | 0.00 | 0.00 | 54 | 1009.9 |
| 20260507140551 | 46 | 290 | 1.0 | 5.0 | 0.00 | 0.00 | 0.00 | 54 | 1009.9 |
| 20260507140105 | 46 | 292 | 2.0 | 5.0 | 0.00 | 0.00 | 0.00 | 54 | 1009.9 |
| 20260507135555 | 46 | 283 | 2.0 | 6.0 | 0.00 | 0.00 | 0.00 | 54 | 1009.9 |
| 20260507135047 | 46 | 303 | 3.0 | 6.0 | 0.00 | 0.00 | 0.00 | 55 | 1009.9 |
| 20260507134544 | 46 | 304 | 2.0 | 5.0 | 0.00 | 0.00 | 0.00 | 55 | 1009.9 |
| 20260507134044 | 46 | 268 | 1.0 | 4.0 | 0.00 | 0.00 | 0.00 | 54 | 1009.9 |
| 20260507133831 | 46 | 293 | 1.0 | 3.0 | 0.00 | 0.00 | 0.00 | 55 | 1009.8 |
| 20260507133002 | 46 | 312 | 1.0 | 4.0 | 0.00 | 0.00 | 0.00 | 55 | 1009.8 |
| 20260507132755 | 46 | 276 | 1.0 | 4.0 | 0.00 | 0.00 | 0.00 | 55 | 1009.9 |
| 20260507132004 | 46 | 324 | 1.0 | 4.0 | 0.00 | 0.00 | 0.00 | 55 | 1009.9 |
| 20260507131501 | 46 | 325 | 0.0 | 2.0 | 0.00 | 0.00 | 0.00 | 59 | 1009.9 |
| 20260507131004 | 46 | 46 | 1.0 | 3.0 | 0.00 | 0.00 | 0.00 | 61 | 1009.9 |
| 20260507130502 | 45 | 197 | 1.0 | 3.0 | 0.00 | 0.00 | 0.00 | 61 | 1009.8 |
| 20260507130004 | 45 | 165 | 0.0 | 4.0 | 0.00 | 0.00 | 0.00 | 62 | 1009.8 |
| 20260507125458 | 45 | 165 | 1.0 | 4.0 | 0.00 | 0.00 | 0.00 | 61 | 1009.8 |
| 20260507124955 | 44 | 121 | 1.0 | 4.0 | 0.00 | 0.00 | 0.00 | 63 | 1009.7 |
| 20260507124453 | 44 | 188 | 1.0 | 2.0 | 0.00 | 0.00 | 0.00 | 64 | 1009.6 |
| 20260507123951 | 43 | 188 | 0.0 | 2.0 | 0.00 | 0.00 | 0.00 | 64 | 1009.5 |
| 20260507123358 | 42 | 188 | 1.0 | 3.0 | 0.00 | 0.00 | 0.00 | 67 | 1009.5 |
| 20260507122841 | 42 | 188 | 0.0 | 3.0 | 0.00 | 0.00 | 0.00 | 68 | 1009.4 |
| 20260507122308 | 41 | 223 | 0.0 | 3.0 | 0.00 | 0.00 | 0.00 | 70 | 1009.4 |
| 20260507121758 | 41 | 355 | 0.0 | 2.0 | 0.00 | 0.00 | 0.00 | 73 | 1009.4 |
| 20260507121247 | 40 | 319 | 0.0 | 1.0 | 0.00 | 0.00 | 0.00 | 78 | 1009.4 |
| 20260507120747 | 40 | 320 | 0.0 | 1.0 | 0.00 | 0.00 | 0.00 | 81 | 1009.3 |
| 20260507120245 | 38 | 320 | 0.0 | 0.0 | 0.00 | 0.00 | 0.00 | 84 | 1009.2 |
| 20260507115745 | 38 | 320 | 0.0 | 0.0 | 0.00 | 0.00 | 0.00 | 85 | 1009.1 |
| 20260507115535 | 36 | 319 | 0.0 | 0.0 | 0.00 | 0.00 | 0.00 | 88 | 1009.1 |
| 20260507115011 | 35 | 319 | 0.0 | 0.0 | 0.00 | 0.00 | 0.00 | 90 | 1009.0 |
| 20260507114155 | 34 | 319 | 0.0 | 0.0 | 0.00 | 0.00 | 0.00 | 90 | 1008.5 |
| 20260507113600 | 33 | 319 | 0.0 | 0.0 | 0.00 | 0.00 | 0.00 | 90 | 1008.4 |
| 20260507113104 | 33 | 319 | 0.0 | 0.0 | 0.00 | 0.00 | 0.00 | 89 | 1008.4 |
| 20260507112552 | 32 | 319 | 0.0 | 0.0 | 0.00 | 0.00 | 0.00 | 88 | 1008.3 |
| 20260507112047 | 32 | 319 | 0.0 | 0.0 | 0.00 | 0.00 | 0.00 | 88 | 1008.3 |
| 20260507111548 | 32 | 319 | 0.0 | 0.0 | 0.00 | 0.00 | 0.00 | 88 | 1008.3 |
| 20260507111046 | 33 | 319 | 0.0 | 0.0 | 0.00 | 0.00 | 0.00 | 87 | 1008.3 |
| 20260507110544 | 33 | 319 | 0.0 | 0.0 | 0.00 | 0.00 | 0.00 | 88 | 1008.3 |
| 20260507110005 | 33 | 319 | 0.0 | 0.0 | 0.00 | 0.00 | 0.00 | 87 | 1008.3 |
| 20260507105448 | 33 | 319 | 0.0 | 0.0 | 0.00 | 0.00 | 0.00 | 87 | 1008.3 |
| 20260507105135 | 33 | 319 | 0.0 | 0.0 | 0.00 | 0.00 | 0.00 | 86 | 1008.4 |
| 20260507104351 | 33 | 319 | 0.0 | 0.0 | 0.00 | 0.00 | 0.00 | 86 | 1008.3 |
| 20260507103802 | 34 | 319 | 0.0 | 0.0 | 0.00 | 0.00 | 0.00 | 86 | 1008.3 |
| 20260507103337 | 34 | 319 | 0.0 | 0.0 | 0.00 | 0.00 | 0.00 | 87 | 1008.3 |
| 20260507103326 | 34 | 319 | 0.0 | 0.0 | 0.00 | 0.00 | 0.00 | 86 | 1008.3 |
| 20260507102529 | 34 | 319 | 0.0 | 0.0 | 0.00 | 0.00 | 0.00 | 87 | 1008.3 |
| 20260507101806 | 34 | 319 | 0.0 | 0.0 | 0.00 | 0.00 | 0.00 | 87 | 1008.3 |
| 20260507100646 | 34 | 319 | 0.0 | 0.0 | 0.00 | 0.00 | 0.00 | 86 | 1008.3 |
| 20260507100145 | 34 | 319 | 0.0 | 0.0 | 0.00 | 0.00 | 0.00 | 86 | 1008.3 |
| 20260507095646 | 35 | 319 | 0.0 | 0.0 | 0.00 | 0.00 | 0.00 | 85 | 1008.4 |
| 20260507095105 | 35 | 319 | 0.0 | 0.0 | 0.00 | 0.00 | 0.00 | 84 | 1008.5 |
| 20260507094555 | 35 | 319 | 0.0 | 0.0 | 0.00 | 0.00 | 0.00 | 84 | 1008.5 |
| 20260507094045 | 35 | 319 | 0.0 | 0.0 | 0.00 | 0.00 | 0.00 | 84 | 1008.5 |
| 20260507093832 | 35 | 319 | 0.0 | 0.0 | 0.00 | 0.00 | 0.00 | 84 | 1008.5 |
| 20260507093002 | 35 | 319 | 0.0 | 0.0 | 0.00 | 0.00 | 0.00 | 84 | 1008.5 |
| 20260507092448 | 35 | 319 | 0.0 | 0.0 | 0.00 | 0.00 | 0.00 | 83 | 1008.5 |
| 20260507091947 | 35 | 319 | 0.0 | 0.0 | 0.00 | 0.00 | 0.00 | 83 | 1008.5 |
| 20260507091424 | 35 | 319 | 0.0 | 0.0 | 0.00 | 0.00 | 0.00 | 82 | 1008.6 |
| 20260507090907 | 35 | 319 | 0.0 | 0.0 | 0.00 | 0.00 | 0.00 | 82 | 1008.6 |
| 20260507090357 | 35 | 319 | 0.0 | 0.0 | 0.00 | 0.00 | 0.00 | 81 | 1008.6 |
| 20260507090142 | 35 | 319 | 0.0 | 0.0 | 0.00 | 0.00 | 0.00 | 81 | 1008.7 |
| 20260507085306 | 35 | 319 | 0.0 | 0.0 | 0.00 | 0.00 | 0.00 | 81 | 1008.7 |
| 20260507085102 | 40 | 316 | 1.0 | 2.0 | 0.00 | 0.00 | 0.00 | 68 | 1009.6 |
| 20260507085033 | 39 | 279 | 0.0 | 0.0 | 0.00 | 0.00 | 0.00 | 79 | 1009.4 |
| 20260507085026 | 39 | 279 | 0.0 | 0.0 | 0.00 | 0.00 | 0.00 | 79 | 1009.4 |
| 20260507085016 | 36 | 319 | 0.0 | 0.0 | 0.00 | 0.00 | 0.00 | 82 | 1008.8 |
| 20260507084956 | 36 | 319 | 0.0 | 0.0 | 0.00 | 0.00 | 0.00 | 82 | 1008.8 |
| 20260507084913 | 36 | 319 | 0.0 | 0.0 | 0.00 | 0.00 | 0.00 | 81 | 1008.8 |
| 20260507084825 | 36 | 319 | 0.0 | 0.0 | 0.00 | 0.00 | 0.00 | 81 | 1008.8 |
| 20260507084757 | 35 | 319 | 0.0 | 0.0 | 0.00 | 0.00 | 0.00 | 81 | 1008.7 |
| 20260507084733 | 36 | 319 | 0.0 | 0.0 | 0.00 | 0.00 | 0.00 | 80 | 1008.8 |
| 20260507084643 | 36 | 319 | 0.0 | 0.0 | 0.00 | 0.00 | 0.00 | 79 | 1008.8 |
| 20260507084548 | 37 | 319 | 0.0 | 0.0 | 0.00 | 0.00 | 0.00 | 78 | 1008.8 |
| 20260507084458 | 37 | 319 | 0.0 | 0.0 | 0.00 | 0.00 | 0.00 | 78 | 1008.8 |
| 20260507084409 | 37 | 319 | 0.0 | 0.0 | 0.00 | 0.00 | 0.00 | 78 | 1008.8 |
| 20260507084318 | 37 | 319 | 0.0 | 0.0 | 0.00 | 0.00 | 0.00 | 79 | 1009.1 |
| 20260507084249 | 36 | 319 | 0.0 | 0.0 | 0.00 | 0.00 | 0.00 | 81 | 1008.8 |
| 20260507084214 | 37 | 319 | 0.0 | 0.0 | 0.00 | 0.00 | 0.00 | 78 | 1009.1 |
| 20260507084124 | 37 | 319 | 0.0 | 0.0 | 0.00 | 0.00 | 0.00 | 77 | 1009.1 |
| 20260507084033 | 37 | 319 | 0.0 | 0.0 | 0.00 | 0.00 | 0.00 | 77 | 1009.1 |
| 20260507083947 | 37 | 319 | 0.0 | 0.0 | 0.00 | 0.00 | 0.00 | 76 | 1009.1 |
| 20260507083900 | 37 | 319 | 0.0 | 0.0 | 0.00 | 0.00 | 0.00 | 75 | 1009.1 |
| 20260507083814 | 38 | 319 | 0.0 | 0.0 | 0.00 | 0.00 | 0.00 | 74 | 1009.2 |
| 20260507083722 | 38 | 319 | 0.0 | 0.0 | 0.00 | 0.00 | 0.00 | 74 | 1009.3 |
| 20260507083701 | 36 | 319 | 0.0 | 0.0 | 0.00 | 0.00 | 0.00 | 82 | 1008.8 |
| 20260507083621 | 38 | 319 | 0.0 | 0.0 | 0.00 | 0.00 | 0.00 | 73 | 1009.3 |
| 20260507083523 | 38 | 319 | 0.0 | 0.0 | 0.00 | 0.00 | 0.00 | 72 | 1009.3 |
| 20260507083435 | 38 | 319 | 0.0 | 0.0 | 0.00 | 0.00 | 0.00 | 71 | 1009.3 |
| 20260507083340 | 39 | 319 | 0.0 | 0.0 | 0.00 | 0.00 | 0.00 | 72 | 1009.4 |
| 20260507083257 | 39 | 319 | 0.0 | 0.0 | 0.00 | 0.00 | 0.00 | 72 | 1009.4 |
| 20260507083204 | 36 | 319 | 0.0 | 0.0 | 0.00 | 0.00 | 0.00 | 82 | 1008.8 |
| 20260507083157 | 39 | 319 | 0.0 | 0.0 | 0.00 | 0.00 | 0.00 | 71 | 1009.5 |
| 20260507083101 | 39 | 319 | 0.0 | 0.0 | 0.00 | 0.00 | 0.00 | 69 | 1009.5 |
| 20260507083006 | 39 | 319 | 0.0 | 0.0 | 0.00 | 0.00 | 0.00 | 69 | 1009.5 |
| 20260507082917 | 40 | 319 | 0.0 | 2.0 | 0.00 | 0.00 | 0.00 | 68 | 1009.5 |
| 20260507082828 | 40 | 319 | 0.0 | 2.0 | 0.00 | 0.00 | 0.00 | 68 | 1009.6 |
| 20260507082734 | 36 | 319 | 0.0 | 0.0 | 0.00 | 0.00 | 0.00 | 82 | 1008.7 |
| 20260507082115 | 40 | 316 | 1.0 | 2.0 | 0.00 | 0.00 | 0.00 | 69 | 1009.6 |
| 20260507082032 | 40 | 269 | 0.0 | 2.0 | 0.00 | 0.00 | 0.00 | 70 | 1009.6 |
| 20260507081942 | 40 | 292 | 0.0 | 2.0 | 0.00 | 0.00 | 0.00 | 71 | 1009.6 |
| 20260507081900 | 40 | 246 | 1.0 | 3.0 | 0.00 | 0.00 | 0.00 | 71 | 1009.6 |
| 20260507081810 | 39 | 246 | 1.0 | 3.0 | 0.00 | 0.00 | 0.00 | 75 | 1009.5 |
| 20260507081726 | 39 | 225 | 0.0 | 2.0 | 0.00 | 0.00 | 0.00 | 77 | 1009.4 |
| 20260507081626 | 36 | 319 | 0.0 | 0.0 | 0.00 | 0.00 | 0.00 | 82 | 1008.8 |
| 20260507035802 | 40 | 279 | 0.0 | 0.0 | 0.00 | 0.00 | 0.00 | 76 | 1009.4 |
| 20260507035248 | 40 | 279 | 0.0 | 0.0 | 0.00 | 0.00 | 0.00 | 76 | 1009.4 |
| 20260507034744 | 40 | 279 | 0.0 | 0.0 | 0.00 | 0.00 | 0.00 | 76 | 1009.4 |
| 20260507034239 | 40 | 279 | 0.0 | 0.0 | 0.00 | 0.00 | 0.00 | 75 | 1009.4 |
| 20260507033648 | 40 | 279 | 0.0 | 0.0 | 0.00 | 0.00 | 0.00 | 73 | 1009.4 |
| 20260507033148 | 40 | 279 | 0.0 | 0.0 | 0.00 | 0.00 | 0.00 | 71 | 1009.4 |
| 20260507032652 | 40 | 279 | 0.0 | 0.0 | 0.00 | 0.00 | 0.00 | 69 | 1009.5 |
| 20260507032143 | 40 | 279 | 0.0 | 0.0 | 0.00 | 0.00 | 0.00 | 69 | 1009.5 |
| 20260507031602 | 40 | 279 | 0.0 | 0.0 | 0.00 | 0.00 | 0.00 | 69 | 1009.5 |
| 20260507031047 | 40 | 279 | 0.0 | 0.0 | 0.00 | 0.00 | 0.00 | 69 | 1009.7 |
| 20260507030750 | 40 | 279 | 0.0 | 0.0 | 0.00 | 0.00 | 0.00 | 68 | 1009.7 |
| 20260507030004 | 41 | 279 | 0.0 | 0.0 | 0.00 | 0.00 | 0.00 | 68 | 1009.8 |
| 20260507025453 | 41 | 279 | 0.0 | 0.0 | 0.00 | 0.00 | 0.00 | 68 | 1009.8 |
| 20260507024857 | 41 | 279 | 0.0 | 0.0 | 0.00 | 0.00 | 0.00 | 66 | 1009.8 |
| 20260507024625 | 41 | 279 | 0.0 | 0.0 | 0.00 | 0.00 | 0.00 | 67 | 1009.7 |
| 20260507024042 | 41 | 279 | 0.0 | 0.0 | 0.00 | 0.00 | 0.00 | 65 | 1009.7 |
| 20260507023245 | 41 | 279 | 0.0 | 0.0 | 0.00 | 0.00 | 0.00 | 66 | 1009.7 |
| 20260507022743 | 41 | 279 | 0.0 | 0.0 | 0.00 | 0.00 | 0.00 | 66 | 1009.5 |
| 20260507022437 | 41 | 279 | 0.0 | 0.0 | 0.00 | 0.00 | 0.00 | 67 | 1009.5 |
| 20260507021649 | 41 | 279 | 0.0 | 0.0 | 0.00 | 0.00 | 0.00 | 65 | 1009.5 |
| 20260507021048 | 41 | 279 | 0.0 | 0.0 | 0.00 | 0.00 | 0.00 | 64 | 1009.5 |
| 20260507020602 | 41 | 279 | 0.0 | 0.0 | 0.00 | 0.00 | 0.00 | 63 | 1009.5 |
| 20260507020105 | 41 | 279 | 0.0 | 0.0 | 0.00 | 0.00 | 0.00 | 61 | 1009.5 |
| 20260507015550 | 41 | 279 | 0.0 | 0.0 | 0.00 | 0.00 | 0.00 | 61 | 1009.5 |
| 20260507015049 | 41 | 279 | 0.0 | 0.0 | 0.00 | 0.00 | 0.00 | 60 | 1009.5 |
| 20260507014737 | 41 | 279 | 0.0 | 0.0 | 0.00 | 0.00 | 0.00 | 60 | 1009.4 |
| 20260507013940 | 42 | 279 | 0.0 | 0.0 | 0.00 | 0.00 | 0.00 | 59 | 1009.5 |
| 20260507013400 | 42 | 279 | 0.0 | 0.0 | 0.00 | 0.00 | 0.00 | 59 | 1009.5 |
| 20260507012859 | 42 | 279 | 0.0 | 0.0 | 0.00 | 0.00 | 0.00 | 58 | 1009.5 |
| 20260507012636 | 43 | 279 | 0.0 | 0.0 | 0.00 | 0.00 | 0.00 | 57 | 1009.5 |
| 20260507011756 | 43 | 279 | 0.0 | 0.0 | 0.00 | 0.00 | 0.00 | 56 | 1009.6 |
| 20260507011247 | 44 | 279 | 0.0 | 1.0 | 0.00 | 0.00 | 0.00 | 55 | 1009.3 |
| 20260507010750 | 44 | 279 | 0.0 | 2.0 | 0.00 | 0.00 | 0.00 | 54 | 1009.3 |
| 20260507010238 | 45 | 279 | 1.0 | 5.0 | 0.00 | 0.00 | 0.00 | 52 | 1009.2 |
| 20260507010225 | 45 | 279 | 0.0 | 2.0 | 0.00 | 0.00 | 0.00 | 53 | 1009.4 |
| 20260507005149 | 46 | 279 | 1.0 | 5.0 | 0.00 | 0.00 | 0.00 | 51 | 1009.3 |
| 20260507004951 | 46 | 252 | 1.0 | 5.0 | 0.00 | 0.00 | 0.00 | 50 | 1009.3 |
| 20260507004148 | 47 | 292 | 1.0 | 5.0 | 0.00 | 0.00 | 0.00 | 50 | 1009.3 |
| 20260507003650 | 47 | 269 | 1.0 | 5.0 | 0.00 | 0.00 | 0.00 | 49 | 1009.3 |
| 20260507003135 | 47 | 259 | 2.0 | 6.0 | 0.00 | 0.00 | 0.00 | 48 | 1009.4 |
| 20260507002610 | 47 | 232 | 2.0 | 6.0 | 0.00 | 0.00 | 0.00 | 47 | 1009.3 |
| 20260507002109 | 48 | 278 | 2.0 | 6.0 | 0.00 | 0.00 | 0.00 | 46 | 1009.3 |
| 20260507001717 | 49 | 263 | 4.0 | 8.0 | 0.00 | 0.00 | 0.00 | 45 | 1009.1 |
| 20260507001655 | 48 | 294 | 3.0 | 8.0 | 0.00 | 0.00 | 0.00 | 46 | 1009.3 |
| 20260507000911 | 49 | 271 | 4.0 | 9.0 | 0.00 | 0.00 | 0.00 | 44 | 1009.1 |
| 20260507000106 | 49 | 257 | 4.0 | 9.0 | 0.00 | 0.00 | 0.00 | 44 | 1009.1 |
| 20260506235603 | 50 | 229 | 3.0 | 7.0 | 0.00 | 0.00 | 0.00 | 43 | 1009.2 |
| 20260506235104 | 50 | 288 | 4.0 | 10.0 | 0.00 | 0.00 | 0.00 | 43 | 1009.2 |
| 20260506234604 | 50 | 300 | 3.0 | 10.0 | 0.00 | 0.00 | 0.00 | 43 | 1009.2 |
| 20260506234410 | 50 | 276 | 2.0 | 8.0 | 0.00 | 0.00 | 0.00 | 42 | 1009.0 |
| 20260506233550 | 50 | 340 | 2.0 | 8.0 | 0.00 | 0.00 | 0.00 | 43 | 1009.1 |
| 20260506233050 | 50 | 337 | 2.0 | 8.0 | 0.00 | 0.00 | 0.00 | 44 | 1009.1 |
| 20260506232552 | 50 | 255 | 2.0 | 7.0 | 0.00 | 0.00 | 0.00 | 43 | 1009.1 |
| 20260506232049 | 50 | 297 | 2.0 | 8.0 | 0.00 | 0.00 | 0.00 | 43 | 1009.1 |
| 20260506231546 | 50 | 321 | 3.0 | 10.0 | 0.00 | 0.00 | 0.00 | 43 | 1009.1 |
| 20260506231339 | 50 | 328 | 3.0 | 10.0 | 0.00 | 0.00 | 0.00 | 43 | 1009.1 |
| 20260506230532 | 50 | 282 | 4.0 | 12.0 | 0.00 | 0.00 | 0.00 | 42 | 1009.1 |
| 20260506230010 | 50 | 266 | 3.0 | 14.0 | 0.00 | 0.00 | 0.00 | 42 | 1009.1 |
| 20260506225509 | 51 | 246 | 3.0 | 14.0 | 0.00 | 0.00 | 0.00 | 42 | 1009.1 |
| 20260506225009 | 51 | 307 | 4.0 | 11.0 | 0.00 | 0.00 | 0.00 | 43 | 1009.1 |
| 20260506224512 | 51 | 271 | 3.0 | 11.0 | 0.00 | 0.00 | 0.00 | 41 | 1009.1 |
| 20260506224008 | 51 | 253 | 3.0 | 9.0 | 0.00 | 0.00 | 0.00 | 42 | 1009.2 |
| 20260506223505 | 51 | 300 | 4.0 | 9.0 | 0.00 | 0.00 | 0.00 | 42 | 1009.1 |
| 20260506223312 | 51 | 276 | 4.0 | 13.0 | 0.00 | 0.00 | 0.00 | 41 | 1009.1 |
| 20260506222505 | 51 | 213 | 4.0 | 13.0 | 0.00 | 0.00 | 0.00 | 41 | 1009.1 |
| 20260506222005 | 51 | 271 | 5.0 | 12.0 | 0.00 | 0.00 | 0.00 | 41 | 1009.1 |
| 20260506221502 | 51 | 280 | 4.0 | 12.0 | 0.00 | 0.00 | 0.00 | 40 | 1009.0 |
| 20260506221003 | 51 | 279 | 3.0 | 10.0 | 0.00 | 0.00 | 0.00 | 41 | 1009.1 |
| 20260506220804 | 51 | 330 | 3.0 | 13.0 | 0.00 | 0.00 | 0.00 | 41 | 1009.1 |
| 20260506220002 | 51 | 243 | 4.0 | 13.0 | 0.00 | 0.00 | 0.00 | 40 | 1008.8 |
| 20260506215505 | 52 | 333 | 3.0 | 10.0 | 0.00 | 0.00 | 0.00 | 41 | 1008.8 |